Regional Weather Roundup
Issued by NWS

Home | Current Version | Previous Version | Graphics & Text | Print | Product List | Glossary On
Versions: 1 2 3 4 5 6 7 8 9 10 11 12 13 14 15 16 17 18 19 20 21 22 23 24 25 26 27 28 29 30 31 32 33 34 35 36 37 38 39 40 41 42 43 44 45 46 47 48 49 50
000
ASUS43 KMKX 311511
RWRWI

WISCONSIN REGIONAL WEATHER ROUNDUP
NATIONAL WEATHER SERVICE MILWAUKEE/SULLIVAN WI
1000 AM CDT THU JUL 31 2014

NOTE: "FAIR" INDICATES FEW OR NO CLOUDS BELOW 12,000 FEET WITH NO
SIGNIFICANT WEATHER AND/OR OBSTRUCTIONS TO VISIBILITY.

WIZ001-002-006>008-014>016-023>028-311600-
NORTHWEST WISCONSIN

CITY           SKY/WX    TMP DP  RH WIND       PRES   REMARKS
SUPERIOR ARPT  SUNNY     70  61  74 SW5       29.98S
ASHLAND        SUNNY     72  62  71 VRB5      29.98F
HAYWARD        SUNNY     67  61  81 CALM      30.01S
SIREN          SUNNY     70  59  68 W7        30.01F
RICE LAKE      PTSUNNY   67  60  76 SW5       30.03S
LADYSMITH      MOSUNNY   67  62  82 CALM      30.03S
EAU CLAIRE     SUNNY     71  61  70 W8        30.01F
MENOMONIE      SUNNY     73  58  58 W7        30.03S
NEW RICHMOND   MOSUNNY   71  57  62 NW5       30.04S
OSCEOLA        MOSUNNY   70  61  71 W6        30.05F
$$

WIZ003>005-009-010-017-018-311600-
NORTH CENTRAL WISCONSIN

CITY           SKY/WX    TMP DP  RH WIND       PRES   REMARKS
WOODRUFF       SUNNY     72  59  63 NW8       30.00S
RHINELANDER    SUNNY     68  55  63 NW7       30.01S
EAGLE RIVER    SUNNY     67  56  69 NW6       29.99S
LAND O LAKES   SUNNY     68  57  67 W8        30.00S
PHILLIPS       SUNNY     64  60  87 CALM      30.00F
TOMAHAWK       SUNNY     63  62  96 CALM      30.01S
MEDFORD        PTSUNNY   66  62  86 W5        30.02R
MERRILL        SUNNY     65  62  88 CALM      30.00S
$$

WIZ029-030-035-036-043>047-311600-
CENTRAL WISCONSIN

CITY           SKY/WX    TMP DP  RH WIND       PRES   REMARKS
WAUSAU         MOSUNNY   69  61  75 W6        29.99S
MOSINEE        SUNNY     70  63  78 W7        30.01S
MARSHFIELD     SUNNY     71  63  75 W10       30.01S
STEVENS POINT  MOSUNNY   68  59  74 NW5       30.01S
WAUPACA        MOSUNNY   74  62  65 W7        30.00S
WAUTOMA        SUNNY     76  61  59 W7        30.01S
WISC RAPIDS    SUNNY     71  63  75 W7        30.02S
CAMP DOUGLAS   SUNNY     72  64  78 W8        30.03S
$$

WIZ011>013-019>022-031-037>040-048>050-311600-
NORTHEAST WISCONSIN

CITY           SKY/WX    TMP DP  RH WIND       PRES   REMARKS
ANTIGO         MOSUNNY   62  60  94 CALM      30.01S FOG
STURGEON BAY   SUNNY     66  57  72 SW7       29.98F
GREEN BAY      MOSUNNY   69  63  81 SW3       29.98F
MANITOWOC      SUNNY     70  62  76 VRB6      29.99S
APPLETON       MOSUNNY   66  63  88 W6        30.00S
CLINTONVILLE   SUNNY     70  59  68 NW5       29.99S
OSHKOSH        SUNNY     71  61  70 W7        30.00R
$$

WIZ032>034-041-042-053>061-311600-
SOUTHWEST WISCONSIN

CITY           SKY/WX    TMP DP  RH WIND       PRES   REMARKS
LA CROSSE      SUNNY     72  61  68 CALM      30.04R
SPARTA         SUNNY     69  60  71 SW6       30.04S
VIROQUA        FAIR      69  61  76 NW5       30.06S
BOSCOBEL       SUNNY     73  61  65 SW6       30.05S
PRAIRIE DU CHI SUNNY     72  58  60 W5        30.05F
PLATTEVILLE    FAIR      72  62  71 W5        30.07S
$$

WIZ056-057-062-063-064-067-068-311600-
SOUTH CENTRAL WISCONSIN

CITY           SKY/WX    TMP DP  RH WIND       PRES   REMARKS
BARABOO/DELLS  SUNNY     72  57  59 NW3       30.03S
LONE ROCK      SUNNY     75  63  66 W5        30.04S
WATERTOWN      SUNNY     71  62  74 W6        30.02S
MADISON        SUNNY     74  61  63 VRB5      30.03S
MIDDLETON      FAIR      73  60  63 W8        30.04S
MONROE         SUNNY     72  61  68 W8        30.05S
JANESVILLE     SUNNY     75  59  57 W10       30.03S
$$

WIZ051-052-058>065-066-070>072-311600-
SOUTHEAST WISCONSIN

CITY           SKY/WX    TMP DP  RH WIND       PRES   REMARKS
MILWAUKEE      SUNNY     73  59  61 W8        30.01S
WAUKESHA       SUNNY     70  59  68 SW5       30.03S
MILWAUKEE/TIMM SUNNY     72  57  60 W6        30.01F
RACINE         SUNNY     73  60  63 W6        30.03S
BURLINGTON     SUNNY     71  60  68 W5        30.02S
KENOSHA        SUNNY     72  61  68 W8        30.03R
FOND DU LAC    SUNNY     71  61  70 SW6       30.01S
SHEBOYGAN      SUNNY     71  61  70 NW8       30.00S
WEST BEND      SUNNY     70  59  68 W8        30.01S
JUNEAU         SUNNY     69  59  70 SW5       30.03S
$$

LSZ147-162-311600-
LAKE SUPERIOR

STATION/POSITION TIME  TEMP    WIND        PRES    WAVE
                       AIR SEA DIR/SP/G            HT/PER
                 (UTC) (F)     (DEG/KT/KT) (MB)    (FT/S)
W MID LAKE BUOY  1450   49 42  240/  6/  8 1014.6R   0
PORT WING        1400   65     230/  2/  4 1015.6S
SAXON HARBOR     1440             CALM     1015.2R
$$

LMZ867-665-643>646-311600-
LAKE MICHIGAN

STATION/POSITION TIME  TEMP    WIND        PRES    WAVE
                       AIR SEA DIR/SP/G            HT/PER
                 (UTC) (F)     (DEG/KT/KT) (MB)    (FT/S)
N MID LAKE BUOY  1450   56 54  220/  8/ 10 1014.2R   1
NORTHPORT PIER   1400   63      90/  4/  4 1014.2S
SISTER BAY       1355   69     320/  7/  8   N/A
ALGOMA LAKESHORE 1436          220/  6/  7   N/A
KEWAUNEE LAKESHO 1400   66     240/  2/  4 1014.5R
SHEBOYGAN LAKESH 1500   70     300/  8/  9 1015.6F
PORT WASHINGTON  1400   72     240/  5/  9 1016.6
ATWATER BUOY     1500   69        CALM     1017.0F
MILWAUKEE LAKESH 1400   70     260/  4/  6   N/A
S MID LAKE BUOY  1450   63 61  250/  6/ 10 1016.5R   1/ 3
KENOSHA   LAKESH 1500   72     250/  6/  9 1016.3S
$$

TC  - TEMPERATURE IN CELSIUS
VSB - VISIBILITY IN STATUTE MILES
WCI - WIND CHILL INDEX
HX  - HEAT INDEX



USA.gov is the U.S. government's official web portal to all federal, state and local government web resources and services.